| time (UTC) | temp F | wind direction | speed MPH | gust MPH | rain 1hr in | rain 24hr in | rain mn in | humidity % | barometer mb |
| 20260902110316 | 60 | 185 | 3.0 | 8.0 | 0.01 | 0.01 | 0.01 | 86 | 1015.0 |
| 20260902104816 | 61 | 164 | 5.0 | 7.0 | 0.00 | 0.00 | 0.00 | 82 | 1015.1 |
| 20260902104315 | 61 | 182 | 5.0 | 9.0 | 0.00 | 0.00 | 0.00 | 81 | 1015.2 |
| 20260902103315 | 61 | 170 | 3.0 | 8.0 | 0.00 | 0.00 | 0.00 | 83 | 1015.2 |
| 20260902102815 | 61 | 184 | 3.0 | 7.0 | 0.00 | 0.00 | 0.00 | 83 | 1015.2 |
| 20260902102314 | 61 | 182 | 4.0 | 10.0 | 0.00 | 0.00 | 0.00 | 83 | 1015.1 |
| 20260902101815 | 61 | 178 | 6.0 | 10.0 | 0.00 | 0.00 | 0.00 | 84 | 1015.2 |
| 20260902101315 | 61 | 193 | 4.0 | 8.0 | 0.00 | 0.00 | 0.00 | 86 | 1015.2 |
| 20260902100815 | 61 | 219 | 5.0 | 8.0 | 0.00 | 0.00 | 0.00 | 85 | 1015.3 |
| 20260902100315 | 61 | 211 | 3.0 | 8.0 | 0.00 | 0.00 | 0.00 | 86 | 1015.3 |
| 20260902095815 | 60 | 190 | 4.0 | 8.0 | 0.00 | 0.00 | 0.00 | 87 | 1015.3 |
| 20260902094815 | 60 | 208 | 3.0 | 7.0 | 0.00 | 0.00 | 0.00 | 89 | 1015.4 |
| 20260902093815 | 60 | 197 | 3.0 | 7.0 | 0.00 | 0.00 | 0.00 | 89 | 1015.3 |
| 20260902093315 | 59 | 200 | 3.0 | 5.0 | 0.00 | 0.00 | 0.00 | 89 | 1015.4 |
| 20260902092815 | 59 | 194 | 3.0 | 5.0 | 0.00 | 0.00 | 0.00 | 89 | 1015.4 |
| 20260902092314 | 59 | 175 | 3.0 | 5.0 | 0.00 | 0.00 | 0.00 | 89 | 1015.4 |
| 20260902091815 | 59 | 214 | 5.0 | 9.0 | 0.00 | 0.00 | 0.00 | 89 | 1015.4 |
| 20260902091315 | 59 | 207 | 5.0 | 8.0 | 0.00 | 0.00 | 0.00 | 89 | 1015.4 |
| 20260902090315 | 59 | 186 | 3.0 | 6.0 | 0.00 | 0.00 | 0.00 | 89 | 1015.4 |
| 20260902085815 | 59 | 225 | 3.0 | 7.0 | 0.00 | 0.00 | 0.00 | 89 | 1015.4 |
| 20260902085315 | 59 | 201 | 3.0 | 7.0 | 0.00 | 0.00 | 0.00 | 89 | 1015.5 |
| 20260902084815 | 59 | 184 | 2.0 | 6.0 | 0.00 | 0.00 | 0.00 | 89 | 1015.4 |
| 20260902083815 | 59 | 217 | 2.0 | 5.0 | 0.00 | 0.00 | 0.00 | 89 | 1015.5 |
| 20260902083315 | 59 | 194 | 3.0 | 5.0 | 0.00 | 0.00 | 0.00 | 89 | 1015.4 |
| 20260902082816 | 59 | 205 | 2.0 | 5.0 | 0.00 | 0.00 | 0.00 | 89 | 1015.4 |
| 20260902082314 | 58 | 196 | 3.0 | 6.0 | 0.00 | 0.00 | 0.00 | 89 | 1015.4 |
| 20260902081815 | 58 | 187 | 2.0 | 6.0 | 0.00 | 0.00 | 0.00 | 89 | 1015.5 |
| 20260902080815 | 58 | 267 | 3.0 | 6.0 | 0.00 | 0.00 | 0.00 | 89 | 1015.5 |
| 20260902080315 | 58 | 244 | 2.0 | 3.0 | 0.00 | 0.00 | 0.00 | 88 | 1015.5 |
| 20260902075814 | 58 | 237 | 5.0 | 9.0 | 0.00 | 0.00 | 0.00 | 88 | 1015.5 |
| 20260902074815 | 58 | 288 | 2.0 | 5.0 | 0.00 | 0.00 | 0.00 | 89 | 1015.5 |
| 20260902074314 | 58 | 215 | 2.0 | 3.0 | 0.00 | 0.00 | 0.00 | 89 | 1015.4 |
| 20260902073814 | 58 | 196 | 2.0 | 6.0 | 0.00 | 0.00 | 0.00 | 89 | 1015.5 |
| 20260902073315 | 58 | 220 | 1.0 | 3.0 | 0.00 | 0.00 | 0.00 | 89 | 1015.4 |
| 20260902072815 | 58 | 226 | 3.0 | 5.0 | 0.00 | 0.00 | 0.00 | 89 | 1015.3 |
| 20260902072316 | 58 | 270 | 3.0 | 5.0 | 0.00 | 0.00 | 0.00 | 89 | 1015.3 |
| 20260902071315 | 58 | 162 | 2.0 | 6.0 | 0.00 | 0.00 | 0.00 | 89 | 1015.3 |
| 20260902070815 | 58 | 154 | 2.0 | 5.0 | 0.00 | 0.00 | 0.00 | 89 | 1015.3 |
| 20260902070315 | 57 | 210 | 2.0 | 5.0 | 0.00 | 0.00 | 0.00 | 89 | 1015.3 |
| 20260902065314 | 57 | 181 | 2.0 | 5.0 | 0.00 | 0.00 | 0.00 | 89 | 1015.2 |
| 20260902064815 | 57 | 176 | 1.0 | 3.0 | 0.00 | 0.00 | 0.00 | 89 | 1015.2 |
| 20260902063814 | 57 | 209 | 3.0 | 6.0 | 0.00 | 0.00 | 0.00 | 89 | 1015.2 |
| 20260902063314 | 57 | 217 | 2.0 | 5.0 | 0.00 | 0.00 | 0.00 | 89 | 1015.1 |
| 20260902062815 | 57 | 217 | 3.0 | 6.0 | 0.00 | 0.00 | 0.00 | 90 | 1015.2 |
| 20260902062314 | 57 | 194 | 3.0 | 6.0 | 0.00 | 0.00 | 0.00 | 90 | 1015.2 |
| 20260902061814 | 57 | 194 | 3.0 | 7.0 | 0.00 | 0.00 | 0.00 | 90 | 1015.2 |
| 20260902061315 | 57 | 197 | 1.0 | 3.0 | 0.00 | 0.00 | 0.00 | 90 | 1015.3 |
| 20260902060815 | 57 | 229 | 3.0 | 6.0 | 0.00 | 0.00 | 0.00 | 90 | 1015.2 |
| 20260902055815 | 57 | 183 | 4.0 | 7.0 | 0.00 | 0.00 | 0.00 | 90 | 1015.0 |
| 20260902055315 | 57 | 184 | 2.0 | 5.0 | 0.00 | 0.00 | 0.00 | 90 | 1015.0 |
| 20260902054815 | 57 | 181 | 1.0 | 3.0 | 0.00 | 0.00 | 0.00 | 90 | 1014.9 |
| 20260902054314 | 57 | 135 | 1.0 | 2.0 | 0.00 | 0.00 | 0.00 | 90 | 1014.9 |
| 20260902053815 | 57 | 135 | 0.0 | 2.0 | 0.00 | 0.00 | 0.00 | 90 | 1014.9 |
| 20260902053315 | 57 | 135 | 0.0 | 2.0 | 0.00 | 0.00 | 0.00 | 90 | 1015.0 |
| 20260902052815 | 57 | 135 | 0.0 | 1.0 | 0.00 | 0.00 | 0.00 | 90 | 1015.0 |
| 20260902052314 | 57 | 135 | 1.0 | 2.0 | 0.00 | 0.00 | 0.00 | 89 | 1015.0 |
| 20260902051815 | 57 | 135 | 0.0 | 2.0 | 0.00 | 0.00 | 0.00 | 89 | 1014.9 |
| 20260902051314 | 57 | 135 | 1.0 | 3.0 | 0.00 | 0.00 | 0.00 | 89 | 1014.9 |
| 20260902050815 | 57 | 135 | 1.0 | 2.0 | 0.00 | 0.00 | 0.00 | 89 | 1015.0 |
| 20260902050316 | 57 | 135 | 1.0 | 2.0 | 0.00 | 0.00 | 0.00 | 89 | 1014.9 |
| 20260902045814 | 58 | 159 | 1.0 | 2.0 | 0.00 | 0.00 | 0.00 | 89 | 1014.9 |
| 20260902045315 | 58 | 271 | 1.0 | 2.0 | 0.00 | 0.00 | 0.00 | 89 | 1014.9 |
| 20260902044814 | 58 | 271 | 1.0 | 1.0 | 0.00 | 0.00 | 0.00 | 89 | 1014.9 |
| 20260902043315 | 58 | 271 | 0.0 | 1.0 | 0.00 | 0.00 | 0.00 | 89 | 1015.0 |
| 20260902042815 | 58 | 271 | 0.0 | 1.0 | 0.00 | 0.00 | 0.00 | 89 | 1015.0 |
| 20260902042314 | 58 | 271 | 0.0 | 2.0 | 0.00 | 0.00 | 0.00 | 89 | 1015.0 |
| 20260902041815 | 58 | 271 | 0.0 | 2.0 | 0.00 | 0.00 | 0.00 | 88 | 1015.0 |
| 20260902041314 | 58 | 271 | 1.0 | 3.0 | 0.00 | 0.00 | 0.00 | 88 | 1015.0 |
| 20260902040814 | 58 | 204 | 1.0 | 3.0 | 0.00 | 0.00 | 0.00 | 88 | 1015.0 |
| 20260902035815 | 58 | 220 | 0.0 | 2.0 | 0.00 | 0.00 | 0.00 | 88 | 1015.0 |
| 20260902035314 | 58 | 220 | 1.0 | 2.0 | 0.00 | 0.00 | 0.00 | 88 | 1015.0 |
| 20260902034815 | 58 | 220 | 1.0 | 2.0 | 0.00 | 0.00 | 0.00 | 88 | 1015.0 |
| 20260902034315 | 58 | 220 | 1.0 | 3.0 | 0.00 | 0.00 | 0.00 | 88 | 1014.9 |
| 20260902033814 | 58 | 200 | 1.0 | 2.0 | 0.00 | 0.00 | 0.00 | 88 | 1015.0 |
| 20260902032815 | 58 | 200 | 0.0 | 1.0 | 0.00 | 0.00 | 0.00 | 89 | 1015.0 |
| 20260902032314 | 58 | 200 | 2.0 | 3.0 | 0.00 | 0.00 | 0.00 | 89 | 1015.0 |
| 20260902031815 | 57 | 212 | 2.0 | 3.0 | 0.00 | 0.00 | 0.00 | 89 | 1015.0 |
| 20260902031314 | 57 | 211 | 1.0 | 2.0 | 0.00 | 0.00 | 0.00 | 89 | 1015.0 |
| 20260902030815 | 57 | 211 | 1.0 | 3.0 | 0.00 | 0.00 | 0.00 | 89 | 1015.0 |
| 20260902030314 | 57 | 236 | 1.0 | 2.0 | 0.00 | 0.00 | 0.00 | 88 | 1015.0 |
| 20260902025814 | 57 | 236 | 0.0 | 1.0 | 0.00 | 0.00 | 0.00 | 88 | 1015.1 |
| 20260902025315 | 57 | 236 | 0.0 | 2.0 | 0.00 | 0.00 | 0.00 | 88 | 1015.1 |
| 20260902024815 | 57 | 236 | 0.0 | 2.0 | 0.00 | 0.00 | 0.00 | 88 | 1015.3 |
| 20260902024315 | 57 | 236 | 1.0 | 1.0 | 0.00 | 0.00 | 0.00 | 87 | 1015.4 |
| 20260902023814 | 57 | 236 | 2.0 | 3.0 | 0.00 | 0.00 | 0.00 | 87 | 1015.4 |
| 20260902023315 | 57 | 236 | 1.0 | 3.0 | 0.00 | 0.00 | 0.00 | 87 | 1015.4 |
| 20260902022814 | 57 | 271 | 1.0 | 3.0 | 0.00 | 0.00 | 0.00 | 87 | 1015.4 |
| 20260902022314 | 57 | 245 | 1.0 | 3.0 | 0.00 | 0.00 | 0.00 | 87 | 1015.5 |
| 20260902021814 | 58 | 245 | 2.0 | 3.0 | 0.00 | 0.00 | 0.00 | 86 | 1015.5 |
| 20260902021314 | 58 | 263 | 1.0 | 3.0 | 0.00 | 0.00 | 0.00 | 86 | 1015.5 |
| 20260902020815 | 58 | 257 | 2.0 | 6.0 | 0.00 | 0.00 | 0.00 | 85 | 1015.6 |
| 20260902020314 | 58 | 212 | 3.0 | 7.0 | 0.00 | 0.00 | 0.00 | 85 | 1015.7 |
| 20260902015815 | 58 | 220 | 4.0 | 6.0 | 0.00 | 0.00 | 0.00 | 85 | 1015.7 |
| 20260902015314 | 58 | 197 | 2.0 | 3.0 | 0.00 | 0.00 | 0.00 | 85 | 1015.6 |
| 20260902014315 | 58 | 207 | 2.0 | 3.0 | 0.00 | 0.00 | 0.00 | 85 | 1015.6 |
| 20260902013814 | 59 | 206 | 2.0 | 3.0 | 0.00 | 0.00 | 0.00 | 85 | 1015.6 |
| 20260902013314 | 59 | 206 | 0.0 | 2.0 | 0.00 | 0.00 | 0.00 | 85 | 1015.7 |
| 20260902012814 | 58 | 206 | 0.0 | 2.0 | 0.00 | 0.00 | 0.00 | 85 | 1015.7 |
| 20260902012314 | 58 | 206 | 1.0 | 3.0 | 0.00 | 0.00 | 0.00 | 85 | 1015.6 |
| 20260902011815 | 58 | 153 | 3.0 | 8.0 | 0.00 | 0.00 | 0.00 | 85 | 1015.7 |
| 20260902011316 | 58 | 21 | 0.0 | 2.0 | 0.00 | 0.00 | 0.00 | 85 | 1015.7 |
| 20260902010815 | 58 | 27 | 2.0 | 3.0 | 0.00 | 0.00 | 0.00 | 84 | 1015.7 |
| 20260902010314 | 58 | 106 | 1.0 | 2.0 | 0.00 | 0.00 | 0.00 | 84 | 1015.7 |
| 20260902005816 | 59 | 213 | 2.0 | 6.0 | 0.00 | 0.00 | 0.00 | 84 | 1015.6 |
| 20260902004815 | 59 | 225 | 0.0 | 2.0 | 0.00 | 0.00 | 0.00 | 83 | 1015.6 |
| 20260902004315 | 59 | 225 | 1.0 | 2.0 | 0.00 | 0.00 | 0.00 | 83 | 1015.8 |
| 20260902003814 | 59 | 225 | 0.0 | 2.0 | 0.00 | 0.00 | 0.00 | 83 | 1015.7 |
| 20260902003314 | 59 | 225 | 3.0 | 5.0 | 0.00 | 0.00 | 0.00 | 83 | 1015.8 |
| 20260902002815 | 59 | 240 | 2.0 | 5.0 | 0.00 | 0.00 | 0.00 | 83 | 1015.8 |
| 20260902001814 | 59 | 221 | 3.0 | 22.0 | 0.00 | 0.00 | 0.00 | 83 | 1015.8 |
| 20260902000815 | 59 | 215 | 3.0 | 6.0 | 0.00 | 0.00 | 0.00 | 83 | 1015.9 |
| 20260902000314 | 59 | 263 | 2.0 | 5.0 | 0.00 | 0.00 | 0.00 | 83 | 1015.9 |
| 20260901235814 | 59 | 230 | 3.0 | 7.0 | 0.00 | 0.00 | 0.00 | 82 | 1015.9 |
| 20260901235314 | 59 | 249 | 5.0 | 6.0 | 0.00 | 0.00 | 0.00 | 82 | 1015.9 |
| 20260901234814 | 59 | 251 | 5.0 | 7.0 | 0.00 | 0.00 | 0.00 | 82 | 1016.0 |
| 20260901234314 | 59 | 237 | 3.0 | 8.0 | 0.00 | 0.00 | 0.00 | 82 | 1015.9 |
| 20260901233815 | 59 | 222 | 5.0 | 9.0 | 0.00 | 0.00 | 0.00 | 82 | 1015.8 |
| 20260901233313 | 59 | 231 | 3.0 | 8.0 | 0.00 | 0.00 | 0.00 | 82 | 1015.8 |
| 20260901232814 | 59 | 219 | 6.0 | 8.0 | 0.00 | 0.00 | 0.00 | 82 | 1015.8 |
| 20260901232314 | 59 | 260 | 4.0 | 12.0 | 0.00 | 0.00 | 0.00 | 82 | 1015.8 |
| 20260901231815 | 59 | 229 | 4.0 | 7.0 | 0.00 | 0.00 | 0.00 | 82 | 1015.9 |
| 20260901231314 | 60 | 248 | 3.0 | 6.0 | 0.00 | 0.00 | 0.00 | 82 | 1015.9 |
| 20260901230855 | 60 | 243 | 3.0 | 7.0 | 0.00 | 0.00 | 0.00 | 81 | 1016.0 |
| 20260901230314 | 60 | 241 | 4.0 | 7.0 | 0.00 | 0.00 | 0.00 | 81 | 1016.0 |
| 20260901225814 | 60 | 222 | 3.0 | 7.0 | 0.00 | 0.00 | 0.00 | 81 | 1016.0 |
| 20260901225314 | 60 | 250 | 4.0 | 9.0 | 0.00 | 0.00 | 0.00 | 81 | 1016.1 |
| 20260901224815 | 60 | 234 | 3.0 | 7.0 | 0.00 | 0.00 | 0.00 | 81 | 1016.1 |
| 20260901224314 | 60 | 226 | 3.0 | 7.0 | 0.00 | 0.00 | 0.00 | 81 | 1016.1 |
| 20260901222814 | 60 | 216 | 4.0 | 7.0 | 0.00 | 0.00 | 0.00 | 80 | 1016.2 |
| 20260901222314 | 60 | 259 | 3.0 | 5.0 | 0.00 | 0.00 | 0.00 | 80 | 1016.2 |
| 20260901221814 | 60 | 261 | 2.0 | 3.0 | 0.00 | 0.00 | 0.00 | 80 | 1016.2 |
| 20260901221314 | 60 | 258 | 3.0 | 6.0 | 0.00 | 0.00 | 0.00 | 80 | 1016.2 |
| 20260901220814 | 60 | 280 | 2.0 | 7.0 | 0.00 | 0.00 | 0.00 | 79 | 1016.2 |
| 20260901215314 | 60 | 247 | 2.0 | 3.0 | 0.00 | 0.00 | 0.00 | 80 | 1016.2 |
| 20260901214314 | 61 | 216 | 3.0 | 6.0 | 0.00 | 0.00 | 0.00 | 80 | 1016.2 |
| 20260901213814 | 61 | 219 | 4.0 | 7.0 | 0.00 | 0.00 | 0.00 | 81 | 1016.2 |
| 20260901213314 | 61 | 232 | 2.0 | 7.0 | 0.00 | 0.00 | 0.00 | 81 | 1016.2 |
| 20260901212816 | 61 | 204 | 2.0 | 6.0 | 0.00 | 0.00 | 0.00 | 82 | 1016.2 |
| 20260901212314 | 61 | 207 | 3.0 | 7.0 | 0.00 | 0.00 | 0.00 | 82 | 1016.2 |
| 20260901211814 | 61 | 185 | 3.0 | 5.0 | 0.00 | 0.00 | 0.00 | 82 | 1016.2 |
| 20260901211314 | 61 | 168 | 1.0 | 3.0 | 0.00 | 0.00 | 0.00 | 83 | 1016.3 |
| 20260901210315 | 61 | 259 | 2.0 | 3.0 | 0.00 | 0.00 | 0.00 | 82 | 1016.3 |
| 20260901205815 | 61 | 269 | 1.0 | 3.0 | 0.00 | 0.00 | 0.00 | 82 | 1016.4 |
| 20260901205314 | 61 | 249 | 2.0 | 8.0 | 0.00 | 0.00 | 0.00 | 82 | 1016.3 |
| 20260901204814 | 61 | 247 | 3.0 | 7.0 | 0.00 | 0.00 | 0.00 | 83 | 1016.3 |
| 20260901204315 | 61 | 246 | 2.0 | 6.0 | 0.00 | 0.00 | 0.00 | 83 | 1016.3 |
| 20260901203813 | 61 | 213 | 3.0 | 6.0 | 0.00 | 0.00 | 0.00 | 83 | 1016.3 |
| 20260901203314 | 61 | 214 | 3.0 | 6.0 | 0.00 | 0.00 | 0.00 | 83 | 1016.3 |
| 20260901202815 | 61 | 214 | 2.0 | 5.0 | 0.00 | 0.00 | 0.00 | 83 | 1016.3 |
| 20260901202314 | 61 | 233 | 2.0 | 5.0 | 0.00 | 0.00 | 0.00 | 83 | 1016.2 |
| 20260901201815 | 61 | 240 | 2.0 | 7.0 | 0.00 | 0.00 | 0.00 | 83 | 1016.2 |
| 20260901201314 | 61 | 252 | 5.0 | 10.0 | 0.00 | 0.00 | 0.00 | 83 | 1016.2 |
| 20260901200815 | 61 | 251 | 5.0 | 7.0 | 0.00 | 0.00 | 0.00 | 83 | 1016.2 |
| 20260901200314 | 61 | 249 | 3.0 | 6.0 | 0.00 | 0.00 | 0.00 | 83 | 1016.2 |
| 20260901195814 | 62 | 232 | 5.0 | 9.0 | 0.00 | 0.00 | 0.00 | 82 | 1016.1 |
| 20260901195314 | 62 | 248 | 4.0 | 7.0 | 0.00 | 0.00 | 0.00 | 82 | 1016.0 |
| 20260901194814 | 62 | 218 | 3.0 | 8.0 | 0.00 | 0.00 | 0.00 | 82 | 1016.1 |
| 20260901194314 | 62 | 236 | 3.0 | 7.0 | 0.00 | 0.00 | 0.00 | 82 | 1016.1 |
| 20260901193814 | 62 | 253 | 5.0 | 8.0 | 0.00 | 0.00 | 0.00 | 82 | 1016.0 |
| 20260901193314 | 62 | 230 | 2.0 | 6.0 | 0.00 | 0.00 | 0.00 | 82 | 1016.0 |
| 20260901192314 | 62 | 241 | 5.0 | 8.0 | 0.00 | 0.00 | 0.00 | 82 | 1016.0 |
| 20260901191814 | 62 | 241 | 5.0 | 8.0 | 0.00 | 0.00 | 0.00 | 81 | 1015.9 |
| 20260901191314 | 62 | 249 | 4.0 | 7.0 | 0.00 | 0.00 | 0.00 | 81 | 1015.9 |
| 20260901190814 | 62 | 244 | 4.0 | 7.0 | 0.00 | 0.00 | 0.00 | 80 | 1015.9 |
| 20260901190314 | 62 | 244 | 5.0 | 8.0 | 0.00 | 0.00 | 0.00 | 80 | 1015.9 |
| 20260901185814 | 62 | 251 | 5.0 | 12.0 | 0.00 | 0.00 | 0.00 | 80 | 1015.9 |
| 20260901184814 | 62 | 239 | 5.0 | 9.0 | 0.00 | 0.00 | 0.00 | 79 | 1015.9 |
| 20260901184314 | 63 | 243 | 4.0 | 12.0 | 0.00 | 0.00 | 0.00 | 79 | 1015.9 |
| 20260901183814 | 63 | 245 | 6.0 | 9.0 | 0.00 | 0.00 | 0.00 | 78 | 1015.9 |
| 20260901181814 | 63 | 251 | 4.0 | 9.0 | 0.00 | 0.00 | 0.00 | 78 | 1016.0 |
| 20260901181314 | 63 | 253 | 4.0 | 8.0 | 0.00 | 0.00 | 0.00 | 78 | 1016.0 |
| 20260901180814 | 63 | 256 | 5.0 | 12.0 | 0.00 | 0.00 | 0.00 | 77 | 1016.0 |
| 20260901175814 | 63 | 247 | 6.0 | 10.0 | 0.00 | 0.00 | 0.00 | 77 | 1016.0 |
| 20260901174814 | 64 | 245 | 5.0 | 9.0 | 0.00 | 0.00 | 0.00 | 76 | 1015.9 |
| 20260901174314 | 64 | 254 | 4.0 | 7.0 | 0.00 | 0.00 | 0.00 | 75 | 1015.8 |
| 20260901173814 | 64 | 254 | 6.0 | 12.0 | 0.00 | 0.00 | 0.00 | 74 | 1015.8 |
| 20260901173314 | 64 | 251 | 5.0 | 12.0 | 0.00 | 0.00 | 0.00 | 74 | 1015.9 |
| 20260901172814 | 64 | 239 | 5.0 | 13.0 | 0.00 | 0.00 | 0.00 | 74 | 1015.9 |
| 20260901172314 | 64 | 253 | 5.0 | 9.0 | 0.00 | 0.00 | 0.00 | 73 | 1015.8 |
| 20260901171814 | 64 | 250 | 6.0 | 14.0 | 0.00 | 0.00 | 0.00 | 73 | 1015.9 |
| 20260901170814 | 63 | 251 | 6.0 | 12.0 | 0.00 | 0.00 | 0.00 | 73 | 1015.9 |
| 20260901170313 | 63 | 242 | 5.0 | 10.0 | 0.00 | 0.00 | 0.00 | 73 | 1015.9 |
| 20260901165814 | 63 | 242 | 7.0 | 12.0 | 0.00 | 0.00 | 0.00 | 73 | 1015.8 |
| 20260901165313 | 64 | 245 | 9.0 | 15.0 | 0.00 | 0.00 | 0.00 | 73 | 1015.8 |
| 20260901164814 | 64 | 261 | 6.0 | 13.0 | 0.00 | 0.00 | 0.00 | 73 | 1016.0 |
| 20260901163314 | 64 | 248 | 7.0 | 12.0 | 0.00 | 0.00 | 0.00 | 72 | 1015.8 |
| 20260901162814 | 64 | 245 | 8.0 | 14.0 | 0.00 | 0.00 | 0.00 | 72 | 1015.8 |
| 20260901162314 | 64 | 248 | 8.0 | 18.0 | 0.00 | 0.00 | 0.00 | 71 | 1015.9 |
| 20260901161814 | 64 | 252 | 8.0 | 12.0 | 0.00 | 0.00 | 0.00 | 71 | 1016.2 |
| 20260901161314 | 64 | 241 | 11.0 | 21.0 | 0.00 | 0.00 | 0.00 | 72 | 1016.0 |
| 20260901160814 | 64 | 242 | 9.0 | 18.0 | 0.00 | 0.00 | 0.00 | 71 | 1016.2 |
| 20260901160314 | 65 | 242 | 8.0 | 15.0 | 0.00 | 0.00 | 0.00 | 71 | 1016.1 |
| 20260901155815 | 65 | 242 | 8.0 | 13.0 | 0.00 | 0.00 | 0.00 | 71 | 1015.9 |
| 20260901155313 | 65 | 246 | 7.0 | 16.0 | 0.00 | 0.00 | 0.00 | 70 | 1015.8 |
| 20260901154814 | 65 | 247 | 8.0 | 15.0 | 0.00 | 0.00 | 0.00 | 69 | 1015.9 |
| 20260901154314 | 65 | 248 | 7.0 | 16.0 | 0.00 | 0.00 | 0.00 | 68 | 1016.0 |
| 20260901153814 | 65 | 252 | 7.0 | 14.0 | 0.00 | 0.00 | 0.00 | 70 | 1016.0 |
| 20260901153314 | 64 | 252 | 7.0 | 14.0 | 0.00 | 0.00 | 0.00 | 71 | 1016.1 |
| 20260901152814 | 64 | 253 | 8.0 | 15.0 | 0.00 | 0.00 | 0.00 | 70 | 1016.1 |
| 20260901151813 | 65 | 239 | 6.0 | 13.0 | 0.00 | 0.00 | 0.00 | 69 | 1016.1 |
| 20260901150814 | 64 | 238 | 9.0 | 17.0 | 0.00 | 0.00 | 0.00 | 70 | 1015.9 |
| 20260901150314 | 64 | 233 | 8.0 | 14.0 | 0.00 | 0.00 | 0.00 | 71 | 1015.9 |
| 20260901145813 | 64 | 247 | 5.0 | 12.0 | 0.00 | 0.00 | 0.00 | 72 | 1015.9 |
| 20260901144813 | 64 | 254 | 5.0 | 12.0 | 0.00 | 0.00 | 0.00 | 70 | 1016.0 |
| 20260901143314 | 65 | 245 | 6.0 | 12.0 | 0.00 | 0.00 | 0.00 | 69 | 1016.2 |
| 20260901142813 | 65 | 247 | 6.0 | 14.0 | 0.00 | 0.00 | 0.00 | 70 | 1016.2 |
| 20260901141813 | 65 | 243 | 6.0 | 14.0 | 0.00 | 0.00 | 0.00 | 71 | 1016.3 |
| 20260901141314 | 65 | 238 | 6.0 | 13.0 | 0.00 | 0.00 | 0.00 | 70 | 1016.2 |
| 20260901140814 | 65 | 247 | 6.0 | 12.0 | 0.00 | 0.00 | 0.00 | 70 | 1016.2 |
| 20260901140314 | 65 | 249 | 7.0 | 12.0 | 0.00 | 0.00 | 0.00 | 70 | 1016.1 |
| 20260901135813 | 65 | 259 | 7.0 | 15.0 | 0.00 | 0.00 | 0.00 | 70 | 1016.2 |
| 20260901135314 | 65 | 243 | 6.0 | 15.0 | 0.00 | 0.00 | 0.00 | 69 | 1016.0 |
| 20260901134814 | 66 | 248 | 8.0 | 14.0 | 0.00 | 0.00 | 0.00 | 67 | 1016.0 |
| 20260901134314 | 66 | 239 | 7.0 | 13.0 | 0.00 | 0.00 | 0.00 | 67 | 1016.1 |
| 20260901132314 | 66 | 229 | 6.0 | 12.0 | 0.00 | 0.00 | 0.00 | 67 | 1016.1 |
| 20260901131814 | 65 | 231 | 6.0 | 22.0 | 0.00 | 0.00 | 0.00 | 67 | 1016.2 |
| 20260901131314 | 66 | 229 | 9.0 | 20.0 | 0.00 | 0.00 | 0.00 | 65 | 1016.2 |
| 20260901130813 | 65 | 215 | 6.0 | 17.0 | 0.00 | 0.00 | 0.00 | 68 | 1016.2 |
| 20260901130314 | 65 | 257 | 7.0 | 12.0 | 0.00 | 0.00 | 0.00 | 68 | 1016.2 |
| 20260901125313 | 65 | 242 | 7.0 | 12.0 | 0.00 | 0.00 | 0.00 | 68 | 1016.2 |
| 20260901124813 | 65 | 218 | 6.0 | 12.0 | 0.00 | 0.00 | 0.00 | 68 | 1016.2 |
| 20260901124314 | 65 | 226 | 6.0 | 18.0 | 0.00 | 0.00 | 0.00 | 69 | 1016.2 |
| 20260901123814 | 65 | 220 | 7.0 | 18.0 | 0.00 | 0.00 | 0.00 | 68 | 1016.3 |
| 20260901123313 | 65 | 222 | 7.0 | 16.0 | 0.00 | 0.00 | 0.00 | 68 | 1016.3 |
| 20260901122814 | 65 | 217 | 5.0 | 12.0 | 0.00 | 0.00 | 0.00 | 69 | 1016.3 |
| 20260901122314 | 64 | 235 | 5.0 | 13.0 | 0.00 | 0.00 | 0.00 | 70 | 1016.3 |
| 20260901121814 | 64 | 258 | 6.0 | 12.0 | 0.00 | 0.00 | 0.00 | 70 | 1016.4 |
| 20260901121314 | 64 | 235 | 6.0 | 12.0 | 0.00 | 0.00 | 0.00 | 70 | 1016.4 |
| 20260901120814 | 64 | 234 | 4.0 | 9.0 | 0.00 | 0.00 | 0.00 | 70 | 1016.3 |
| 20260901120313 | 64 | 229 | 5.0 | 12.0 | 0.00 | 0.00 | 0.00 | 71 | 1016.4 |
| 20260901115814 | 63 | 233 | 6.0 | 12.0 | 0.00 | 0.00 | 0.00 | 71 | 1016.5 |
| 20260901114313 | 63 | 247 | 7.0 | 12.0 | 0.00 | 0.00 | 0.00 | 71 | 1016.4 |
| 20260901113814 | 63 | 254 | 5.0 | 10.0 | 0.00 | 0.00 | 0.00 | 71 | 1016.4 |
| 20260901113313 | 63 | 232 | 6.0 | 10.0 | 0.00 | 0.00 | 0.00 | 71 | 1016.5 |
| 20260901112814 | 63 | 222 | 7.0 | 14.0 | 0.00 | 0.00 | 0.00 | 70 | 1016.4 |
| 20260901112313 | 63 | 218 | 7.0 | 13.0 | 0.00 | 0.00 | 0.00 | 70 | 1016.4 |
| 20260901111313 | 64 | 220 | 7.0 | 13.0 | 0.00 | 0.00 | 0.00 | 68 | 1016.3 |